Location: Unspecified
(0.0000°N, 0.0000°E)
Time: 08:39:08
(UTC+00:00)

deb NOAA 5 - Pass Details

Date: 15 February 2026
Orbit: 747 x 1048 km, 102.9° (Epoch: 14 March)

Event Time Altitude Azimuth Distance (km) Brightness Sun altitude
Rises 04:45:13 0° 122° (ESE) 3,390 ? -21.7°
Reaches altitude 10° 04:49:17 10° 91° (E) 2,526 ? -20.7°
Maximum altitude 04:51:14 12° 70° (ENE) 2,429 ? -20.2°
Drops below altitude 10° 04:53:14 10° 50° (NE) 2,597 ? -19.7°
Sets 04:57:32 0° 20° (NNE) 3,616 ? -18.7°
